This is the latest recevied weather packets stored in our database for station/object WP3XM. If no packets are shown the sender has not sent any weather packets the latest 10 day(s).
| Time | Temp. | Humidity | Pressure | Rain* | Wind** | Luminosity | Snow |
|---|---|---|---|---|---|---|---|
| 1777755314 | 28.89° C | 73% | 1016 hPa | 0 mm | - | 307 W/m² | - |
| 1777755012 | 28.33° C | 72% | 1016 hPa | 0 mm | - | 321 W/m² | - |
| 1777754708 | 28.89° C | 73% | 1015.9 hPa | 0 mm | - | 334 W/m² | - |
| 1777754406 | 28.33° C | 75% | 1016 hPa | 0 mm | - | 363 W/m² | - |
| 1777754103 | 28.89° C | 73% | 1016.1 hPa | 0 mm | - | 82 W/m² | - |
| 1777753800 | 28.89° C | 74% | 1016.3 hPa | 0 mm | - | 111 W/m² | - |
| 1777753496 | 28.89° C | 73% | 1016.1 hPa | 0 mm | - | 471 W/m² | - |
| 1777753195 | 28.33° C | 73% | 1016.2 hPa | 0 mm | - | 386 W/m² | - |
| 1777752890 | 28.89° C | 73% | 1016.2 hPa | 0 mm | - | 532 W/m² | - |
| 1777752587 | 28.89° C | 73% | 1016 hPa | 0 mm | - | 140 W/m² | - |
| 1777752283 | 28.89° C | 73% | 1016 hPa | 0 mm | - | 608 W/m² | - |
| 1777751980 | 28.89° C | 73% | 1016 hPa | 0 mm | - | 597 W/m² | - |
| 1777751678 | 28.89° C | 74% | 1016.1 hPa | 0 mm | - | 576 W/m² | - |
| 1777751374 | 29.44° C | 70% | 1016.1 hPa | 0 mm | - | 119 W/m² | - |
| 1777751071 | 29.44° C | 70% | 1016.1 hPa | 0 mm | - | 192 W/m² | - |
| 1777750766 | 28.89° C | 72% | 1016.4 hPa | 0 mm | - | 635 W/m² | - |
| 1777750464 | 29.44° C | 70% | 1016.4 hPa | 0 mm | - | 676 W/m² | - |
| 1777750159 | 28.89° C | 70% | 1016.3 hPa | 0 mm | - | 503 W/m² | - |
| 1777749856 | 29.44° C | 69% | 1016.2 hPa | 0 mm | - | 687 W/m² | - |
| 1777749554 | 29.44° C | 69% | 1016.3 hPa | 0 mm | - | 745 W/m² | - |
| 1777749251 | 29.44° C | 70% | 1016.2 hPa | 0 mm | - | 706 W/m² | - |
| 1777748949 | 28.89° C | 70% | 1016.4 hPa | 0 mm | - | 702 W/m² | - |
| 1777748646 | 28.89° C | 70% | 1016.5 hPa | 0 mm | - | 410 W/m² | - |
| 1777748341 | 29.44° C | 70% | 1016.5 hPa | 0 mm | - | 723 W/m² | - |
| 1777748037 | 29.44° C | 69% | 1016.6 hPa | 0 mm | - | 247 W/m² | - |
* Rain latest hour (hover to see other rain measurements)
** Current wind speed in m/s (hover to see current wind gust speed)